Time,TemperatureF,DewpointF,PressureIn,WindDirection,WindDirectionDegrees,WindSpeedMPH,WindSpeedGustMPH,Humidity,HourlyPrecipIn,Conditions,Clouds,dailyrainin,SoftwareType,DateUTC
2011-11-09 00:03:00,28.2,21.9,30.16,East,90,2.5,3.8,77,0.00,,,0.00,open2300-1.11,2011-11-09 07:03:00,
2011-11-09 00:17:00,28.2,21.6,30.17,East,90,0.0,2.5,76,0.00,,,0.00,open2300-1.11,2011-11-09 07:17:00,
2011-11-09 00:33:00,28.0,21.4,30.17,East,90,0.0,0.0,76,0.00,,,0.00,open2300-1.11,2011-11-09 07:33:00,
2011-11-09 00:47:00,27.7,21.4,30.17,ENE,67,1.8,1.8,77,0.00,,,0.00,open2300-1.11,2011-11-09 07:47:00,
2011-11-09 01:02:00,28.0,21.4,30.17,East,90,0.0,1.8,76,0.00,,,0.00,open2300-1.11,2011-11-09 08:02:00,
2011-11-09 01:17:00,27.5,20.9,30.17,ENE,67,3.1,5.4,76,0.00,,,0.00,open2300-1.11,2011-11-09 08:17:00,
2011-11-09 01:33:00,28.0,21.4,30.18,East,90,0.0,3.1,76,0.00,,,0.00,open2300-1.11,2011-11-09 08:33:00,
2011-11-09 01:49:00,28.0,21.4,30.19,ESE,112,0.0,2.0,76,0.00,,,0.00,open2300-1.11,2011-11-09 08:49:00,
2011-11-09 02:03:00,27.7,21.1,30.19,SSE,157,0.0,0.0,76,0.00,,,0.00,open2300-1.11,2011-11-09 09:03:00,
2011-11-09 02:18:00,27.7,21.1,30.19,ENE,67,2.5,5.1,76,0.00,,,0.00,open2300-1.11,2011-11-09 09:18:00,
2011-11-09 02:32:00,28.0,21.1,30.19,East,90,0.0,2.5,75,0.00,,,0.00,open2300-1.11,2011-11-09 09:32:00,
2011-11-09 02:47:00,28.2,21.3,30.19,East,90,1.8,2.2,75,0.00,,,0.00,open2300-1.11,2011-11-09 09:47:00,
2011-11-09 03:02:00,28.6,21.3,30.19,East,90,6.0,6.0,74,0.00,,,0.00,open2300-1.11,2011-11-09 10:02:00,
2011-11-09 03:18:00,28.6,21.3,30.19,ENE,67,4.5,7.2,74,0.00,,,0.00,open2300-1.11,2011-11-09 10:18:00,
2011-11-09 03:34:00,28.2,21.3,30.19,ENE,67,0.0,9.4,75,0.00,,,0.00,open2300-1.11,2011-11-09 10:34:00,
2011-11-09 03:48:00,28.4,21.2,30.19,ENE,67,6.0,9.4,74,0.00,,,0.00,open2300-1.11,2011-11-09 10:48:00,
2011-11-09 04:02:00,28.2,21.0,30.19,ESE,112,1.8,9.6,74,0.00,,,0.00,open2300-1.11,2011-11-09 11:02:00,
2011-11-09 04:18:00,28.0,20.8,30.20,SSE,157,5.1,5.1,74,0.00,,,0.00,open2300-1.11,2011-11-09 11:18:00,
2011-11-09 04:32:00,28.0,20.5,30.21,ESE,112,0.0,5.1,73,0.00,,,0.00,open2300-1.11,2011-11-09 11:32:00,
2011-11-09 04:48:00,26.8,19.5,30.21,ENE,67,0.0,0.0,74,0.00,,,0.00,open2300-1.11,2011-11-09 11:48:00,
2011-11-09 05:03:00,26.1,18.8,30.21,East,90,0.0,0.0,74,0.00,,,0.00,open2300-1.11,2011-11-09 12:03:00,
2011-11-09 05:19:00,25.3,18.5,30.21,ENE,67,0.0,0.0,75,0.00,,,0.00,open2300-1.11,2011-11-09 12:19:00,
2011-11-09 05:33:00,25.7,19.1,30.22,East,90,5.6,6.7,76,0.00,,,0.00,open2300-1.11,2011-11-09 12:33:00,
2011-11-09 05:47:00,26.1,19.1,30.22,SSE,157,0.0,5.6,75,0.00,,,0.00,open2300-1.11,2011-11-09 12:47:00,
2011-11-09 06:03:00,25.9,19.0,30.22,East,90,2.0,6.3,75,0.00,,,0.00,open2300-1.11,2011-11-09 13:03:00,
2011-11-09 06:18:00,26.8,19.2,30.22,East,90,8.7,10.1,73,0.00,,,0.00,open2300-1.11,2011-11-09 13:18:00,
2011-11-09 06:32:00,27.7,18.9,30.22,East,90,9.6,10.3,69,0.00,,,0.00,open2300-1.11,2011-11-09 13:32:00,
2011-11-09 06:48:00,27.7,18.9,30.23,East,90,1.1,10.3,69,0.00,,,0.00,open2300-1.11,2011-11-09 13:48:00,
2011-11-09 07:02:00,28.2,18.3,30.23,East,90,11.9,11.9,66,0.00,,,0.00,open2300-1.11,2011-11-09 14:02:00,
2011-11-09 07:18:00,28.2,17.6,30.24,East,90,10.1,11.9,64,0.00,,,0.00,open2300-1.11,2011-11-09 14:18:00,
2011-11-09 07:33:00,28.0,17.8,30.25,ESE,112,0.0,10.1,65,0.00,,,0.00,open2300-1.11,2011-11-09 14:33:00,
2011-11-09 07:47:00,27.3,18.1,30.26,SE,135,4.2,4.2,68,0.00,,,0.00,open2300-1.11,2011-11-09 14:47:00,
2011-11-09 08:03:00,28.0,18.5,30.27,SSE,157,5.4,6.9,67,0.00,,,0.00,open2300-1.11,2011-11-09 15:03:00,
2011-11-09 08:18:00,28.8,18.8,30.28,ESE,112,0.0,5.6,66,0.00,,,0.00,open2300-1.11,2011-11-09 15:18:00,
2011-11-09 08:32:00,30.7,20.7,30.28,SSE,157,0.0,3.4,66,0.00,,,0.00,open2300-1.11,2011-11-09 15:32:00,
2011-11-09 08:47:00,32.9,21.6,30.28,South,180,0.0,0.0,63,0.00,,,0.00,open2300-1.11,2011-11-09 15:47:00,
2011-11-09 09:03:00,35.1,23.4,30.29,ESE,112,0.0,3.6,62,0.00,,,0.00,open2300-1.11,2011-11-09 16:03:00,
2011-11-09 09:18:00,37.0,24.0,30.30,East,90,0.0,2.7,59,0.00,,,0.00,open2300-1.11,2011-11-09 16:18:00,
2011-11-09 09:33:00,39.0,24.1,30.29,SSW,202,0.0,1.3,55,0.00,,,0.00,open2300-1.11,2011-11-09 16:33:00,
2011-11-09 09:48:00,40.8,25.3,30.28,West,270,0.0,0.0,54,0.00,,,0.00,open2300-1.11,2011-11-09 16:48:00,
2011-11-09 10:03:00,43.3,26.4,30.30,WNW,292,0.0,0.0,51,0.00,,,0.00,open2300-1.11,2011-11-09 17:03:00,
2011-11-09 10:17:00,45.5,26.9,30.29,WNW,292,1.3,2.5,48,0.00,,,0.00,open2300-1.11,2011-11-09 17:17:00,
2011-11-09 10:32:00,46.2,27.0,30.29,WSW,247,2.9,2.9,47,0.00,,,0.00,open2300-1.11,2011-11-09 17:32:00,
2011-11-09 10:47:00,47.3,26.9,30.28,SW,225,0.0,2.9,45,0.00,,,0.00,open2300-1.11,2011-11-09 17:47:00,
2011-11-09 11:03:00,48.0,27.5,30.29,WNW,292,1.1,2.9,45,0.00,,,0.00,open2300-1.11,2011-11-09 18:03:00,
2011-11-09 11:17:00,49.1,28.0,30.28,West,270,3.1,6.9,44,0.00,,,0.00,open2300-1.11,2011-11-09 18:17:00,
2011-11-09 11:32:00,49.1,28.0,30.29,WSW,247,0.0,5.8,44,0.00,,,0.00,open2300-1.11,2011-11-09 18:32:00,
2011-11-09 11:48:00,50.2,28.4,30.28,West,270,4.0,6.5,43,0.00,,,0.00,open2300-1.11,2011-11-09 18:48:00,
2011-11-09 12:02:00,52.0,29.5,30.28,WNW,292,2.7,5.6,42,0.00,,,0.00,open2300-1.11,2011-11-09 19:02:00,
2011-11-09 12:17:00,52.5,30.0,30.27,WNW,292,0.0,2.7,42,0.00,,,0.00,open2300-1.11,2011-11-09 19:17:00,
2011-11-09 12:33:00,52.3,29.3,30.27,WNW,292,0.0,5.6,41,0.00,,,0.00,open2300-1.11,2011-11-09 19:33:00,
2011-11-09 12:48:00,52.5,30.0,30.27,WSW,247,2.2,4.9,42,0.00,,,0.00,open2300-1.11,2011-11-09 19:48:00,
2011-11-09 13:02:00,53.4,30.2,30.26,SW,225,4.0,6.5,41,0.00,,,0.00,open2300-1.11,2011-11-09 20:02:00,
2011-11-09 13:17:00,54.3,31.0,30.25,WSW,247,0.0,5.8,41,0.00,,,0.00,open2300-1.11,2011-11-09 20:17:00,
2011-11-09 13:33:00,55.4,31.5,30.25,WNW,292,0.0,6.3,40,0.00,,,0.00,open2300-1.11,2011-11-09 20:33:00,
2011-11-09 13:48:00,56.8,31.4,30.24,WSW,247,0.0,6.3,38,0.00,,,0.00,open2300-1.11,2011-11-09 20:48:00,
2011-11-09 14:02:00,58.6,32.3,30.24,WNW,292,0.0,2.0,37,0.00,,,0.00,open2300-1.11,2011-11-09 21:02:00,
2011-11-09 14:18:00,61.0,32.2,30.24,WSW,247,2.9,2.9,34,0.00,,,0.00,open2300-1.11,2011-11-09 21:18:00,
2011-11-09 14:33:00,61.5,31.9,30.24,WSW,247,0.0,2.9,33,0.00,,,0.00,open2300-1.11,2011-11-09 21:33:00,
2011-11-09 14:48:00,60.8,31.3,30.24,WNW,292,0.0,2.5,33,0.00,,,0.00,open2300-1.11,2011-11-09 21:48:00,
2011-11-09 15:03:00,61.0,30.7,30.23,WNW,292,6.3,6.3,32,0.00,,,0.00,open2300-1.11,2011-11-09 22:03:00,
2011-11-09 15:18:00,60.1,29.2,30.23,West,270,0.0,6.3,31,0.00,,,0.00,open2300-1.11,2011-11-09 22:18:00,
2011-11-09 15:33:00,59.7,29.0,30.24,WNW,292,0.0,4.7,31,0.00,,,0.00,open2300-1.11,2011-11-09 22:33:00,
2011-11-09 15:47:00,58.6,28.1,30.24,WNW,292,0.0,3.6,31,0.00,,,0.00,open2300-1.11,2011-11-09 22:47:00,
2011-11-09 16:02:00,56.8,27.1,30.24,WNW,292,0.0,6.3,32,0.00,,,0.00,open2300-1.11,2011-11-09 23:02:00,
2011-11-09 16:17:00,55.0,26.9,30.25,NW,315,0.0,4.2,34,0.00,,,0.00,open2300-1.11,2011-11-09 23:17:00,
2011-11-09 16:32:00,53.2,26.1,30.24,WNW,292,6.3,6.3,35,0.00,,,0.00,open2300-1.11,2011-11-09 23:32:00,
2011-11-09 16:47:00,51.1,25.5,30.24,WNW,292,0.7,6.3,37,0.00,,,0.00,open2300-1.11,2011-11-09 23:47:00,
2011-11-09 17:02:00,48.4,25.1,30.24,WNW,292,0.0,4.2,40,0.00,,,0.00,open2300-1.11,2011-11-10 00:02:00,
2011-11-09 17:18:00,46.6,24.6,30.25,WNW,292,0.0,0.0,42,0.00,,,0.00,open2300-1.11,2011-11-10 00:18:00,
2011-11-09 17:32:00,44.4,24.8,30.26,WNW,292,0.0,0.0,46,0.00,,,0.00,open2300-1.11,2011-11-10 00:32:00,
2011-11-09 17:47:00,42.1,24.3,30.26,WNW,292,0.0,0.0,49,0.00,,,0.00,open2300-1.11,2011-11-10 00:47:00,
2011-11-09 18:03:00,40.6,23.4,30.26,WNW,292,0.0,0.0,50,0.00,,,0.00,open2300-1.11,2011-11-10 01:03:00,
2011-11-09 18:17:00,38.8,22.6,30.27,WNW,292,0.0,0.0,52,0.00,,,0.00,open2300-1.11,2011-11-10 01:17:00,
2011-11-09 18:33:00,37.2,22.9,30.27,WNW,292,0.0,0.0,56,0.00,,,0.00,open2300-1.11,2011-11-10 01:33:00,
2011-11-09 18:48:00,35.4,21.7,30.27,WNW,292,0.0,0.0,57,0.00,,,0.00,open2300-1.11,2011-11-10 01:48:00,
2011-11-09 19:02:00,34.3,21.5,30.27,WNW,292,0.0,0.0,59,0.00,,,0.00,open2300-1.11,2011-11-10 02:02:00,
2011-11-09 19:18:00,32.7,20.8,30.27,WNW,292,0.0,0.0,61,0.00,,,0.00,open2300-1.11,2011-11-10 02:18:00,
2011-11-09 19:32:00,31.8,19.9,30.28,WNW,292,0.0,0.0,61,0.00,,,0.00,open2300-1.11,2011-11-10 02:32:00,
2011-11-09 19:47:00,30.7,19.9,30.28,WNW,292,0.0,0.0,64,0.00,,,0.00,open2300-1.11,2011-11-10 02:47:00,
2011-11-09 20:03:00,30.0,19.6,30.28,WNW,292,0.0,0.0,65,0.00,,,0.00,open2300-1.11,2011-11-10 03:03:00,
2011-11-09 20:18:00,29.8,20.2,30.28,WNW,292,0.0,0.0,67,0.00,,,0.00,open2300-1.11,2011-11-10 03:18:00,
2011-11-09 20:33:00,29.3,20.0,30.29,WNW,292,0.0,0.0,68,0.00,,,0.00,open2300-1.11,2011-11-10 03:33:00,
2011-11-09 20:47:00,29.1,20.6,30.29,ESE,112,0.0,5.8,70,0.00,,,0.00,open2300-1.11,2011-11-10 03:47:00,
2011-11-09 21:03:00,28.8,20.6,30.30,ESE,112,0.0,0.0,71,0.00,,,0.00,open2300-1.11,2011-11-10 04:03:00,
2011-11-09 21:18:00,28.2,20.1,30.29,ESE,112,0.0,0.0,71,0.00,,,0.00,open2300-1.11,2011-11-10 04:18:00,
2011-11-09 21:32:00,28.8,21.5,30.30,ESE,112,0.0,6.3,74,0.00,,,0.00,open2300-1.11,2011-11-10 04:32:00,
2011-11-09 21:47:00,28.4,20.9,30.29,ESE,112,0.0,0.0,73,0.00,,,0.00,open2300-1.11,2011-11-10 04:47:00,
2011-11-09 22:03:00,28.0,20.5,30.30,ESE,112,0.0,0.0,73,0.00,,,0.00,open2300-1.11,2011-11-10 05:03:00,
2011-11-09 22:17:00,28.0,20.8,30.30,ESE,112,0.0,0.0,74,0.00,,,0.00,open2300-1.11,2011-11-10 05:17:00,
2011-11-09 22:32:00,27.7,20.4,30.30,East,90,0.0,0.0,74,0.00,,,0.00,open2300-1.11,2011-11-10 05:32:00,
2011-11-09 22:47:00,28.6,21.9,30.30,East,90,5.1,6.3,76,0.00,,,0.00,open2300-1.11,2011-11-10 05:47:00,
2011-11-09 23:03:00,28.8,21.5,30.30,East,90,0.0,5.8,74,0.00,,,0.00,open2300-1.11,2011-11-10 06:03:00,
2011-11-09 23:18:00,28.2,21.3,30.30,ENE,67,5.1,5.1,75,0.00,,,0.00,open2300-1.11,2011-11-10 06:18:00,
2011-11-09 23:32:00,28.8,21.8,30.31,ESE,112,0.0,6.7,75,0.00,,,0.00,open2300-1.11,2011-11-10 06:32:00,
2011-11-09 23:48:00,28.2,21.3,30.30,SSE,157,0.0,0.0,75,0.00,,,0.00,open2300-1.11,2011-11-10 06:48:00,